Tracking 30703 objects as of 13-Jun-2025
HD Live streaming from Space Station
objects crossing your sky now

DRUMS

Track DRUMS now!
10-day predictions


NORAD ID: 49401
Int'l Code: 2021-102G
Perigee: 512.7 km
Apogee: 538.2 km
Inclination: 97.4 °
Period: 95.0 minutes
Semi major axis: 6896 km
RCS: Unknown
Launch date: November 9, 2021
Source: Japan (JPN)
Launch site: KAGOSHIMA SPACE CENTER UNIVERSITY OF TOKYO (KSCUT)
Your satellite tracking list
Your tracking list is empty




NASA's NSSDC Master Catalog

Two Line Element Set (TLE):
1 49401U 21102G   25163.18364538  .00004532  00000-0  23919-3 0  9990
2 49401  97.3771 205.5209 0018525  85.4357 274.8991 15.15879066197443
Source of the keplerian elements: AFSPC